Weather in Ankudinovo

Russia / Vladimir Oblast     56°05′05″N   39°34′53″E
temp.,
°C
wind,
m/s
gust,
m/s
humid.,
%
clouds,
%
prec.,
mm/h
press.,
hPa
HPBL,
m
6 march, sat
sat600:00−12nw11920 0.0 101421
03:00−12w129211 0.0 101621
06:00−13wnw229610 0.0 101521
09:00−10wnw24925 0.0 1016183
12:00−6nw357956 0.0 1016851
15:00−5nw357378 0.4 10151037
18:00−8wnw1286100 0.3 101421
21:00−11w229280 0.3 101421
7 march, sun
sun700:00−13sw23940 0.0 101155
03:00−12ssw499211 0.0 1008265
06:00−9ssw5138999 0.1 1004646
09:00−7ssw61293100 1.6 999899
12:00−4ssw71292100 1.6 9941053
15:00−2sw61294100 3.8 991961
18:00−6w41375100 1.8 9921334
21:00−9wsw4148359 1.8 994458
8 march, mon
mon800:00−11wsw310910 0.0 994233
03:00−12w239738 0.0 99558
06:00−14w339410 0.0 99478
09:00−11wnw498322 0.0 996385
12:00−8wnw5885100 0.0 999746
15:00−6nw5884100 0.2 10021025
18:00−9nw4990100 0.1 1005544
21:00−13nw399395 0.1 1009279
9 march, tue
tue900:00−16nw259610 0.0 1011110
03:00−18nnw23975 0.0 101363
06:00−20nnw23982 0.0 101539
09:00−18nnw25911 0.0 1017257
12:00−13nnw248269 0.0 1018556
15:00−12nnw358081 0.0 1019754
18:00−16nnw239298 0.0 101970
21:00−20nnw239885 0.0 102233
10 march, wed
wed1000:00−23nnw22969 0.0 102324
03:00−25n12965 0.0 102419
06:00−26n119714 0.0 102419
09:00−21e11897 0.0 1025136
12:00−15ese22760 0.0 1025454
15:00−13ese22730 0.0 1024589
18:00−17ene23910 0.0 102426
21:00−20e239522 0.0 102532